Flag Weather past 2 weeks in Brazzaville, Congo

Now
79 °F

Clear.


Feels Like: 82 °F
Forecast: 68 / 90 °F
Wind: 2 mph from Southwest

Location: Brazzaville / Maya-Maya

Current Time: Nov 28, 2014 at 10:11:10 PM

Latest Report: Nov 28, 2014 at 9:00 PM


Visibility: 5 mi

Pressure: 29.92 "Hg

Humidity: 79%

Dew point: 72 °F

Location of BrazzavilleLocation

Historic Weather in Brazzaville — Graph

°F

Brazzaville temperature yesterday

Maximum temperature yesterday: 79 °F (at 12:00 AM)
Minimum temperature yesterday: 70 °F (at 7:59 AM)
Average temperature yesterday: 75 °F

Past Weeks' High & Low Weather Summary

 TemperatureHumidityPressure
High91 °F (Nov 26, 3:00 PM)100% (Nov 15, 11:00 AM)30.04 "Hg (Nov 15, 11:00 AM)
Low68 °F (Nov 25, 3:00 AM)46% (Nov 22, 4:00 PM)29.71 "Hg (Nov 17, 4:00 PM)
Average78 °F81%29.91 "Hg
* Reported Nov 13 8:00 PM — Nov 28 8:00 PM, Brazzaville, Weather by CustomWeather, © 2014

Note: Actual official high and low records may vary slightly from our data, if they occured in-between our weather recording intervals... More about our weather records

Advertising

Brazzaville weather history for previous 24 hours

 ConditionsComfort  
Time TempWeatherWind HumidityBarometerVisibility
8:00 PM
Nov 28
81 °FClear.No wind70%29.89 "Hg5 mi
7:00 PM82 °FPassing clouds.2 mph66%29.83 "Hg5 mi
6:00 PM84 °FPassing clouds.5 mph62%29.83 "Hg6 mi
5:00 PM86 °FPassing clouds.2 mph55%29.83 "HgN/A
4:00 PM86 °FPassing clouds.2 mph55%29.83 "HgN/A
3:00 PM84 °FPassing clouds.7 mph62%29.83 "HgN/A
2:00 PM82 °FPassing clouds.5 mph66%29.89 "HgN/A
1:00 PM82 °FPassing clouds.5 mph66%29.92 "HgN/A
12:00 PM82 °FScattered clouds.5 mph70%29.95 "HgN/A
11:00 AM81 °FScattered clouds.7 mph70%29.98 "HgN/A
10:00 AM79 °FScattered clouds.9 mph79%30.01 "Hg6 mi
9:00 AM75 °FScattered clouds.2 mph89%30.01 "Hg6 mi
8:00 AM73 °FPassing clouds.No wind89%29.98 "Hg6 mi
7:00 AM72 °FScattered clouds.5 mph94%29.95 "HgN/A
6:00 AM70 °FScattered clouds.No wind94%29.95 "HgN/A
5:00 AM72 °FPassing clouds.5 mph94%29.92 "HgN/A
4:00 AM72 °FPassing clouds.2 mph94%29.92 "HgN/A
3:00 AM72 °FPassing clouds.No wind94%29.92 "HgN/A
2:00 AM72 °FClear.2 mph94%29.89 "Hg10 mi
1:00 AM72 °FClear.No wind94%29.92 "Hg10 mi
12:00 AM72 °FClear.No wind94%29.95 "Hg10 mi
11:00 PM
Nov 27
73 °FClear.5 mph89%29.95 "Hg10 mi
10:00 PM73 °FClear.7 mph89%29.95 "Hg10 mi
Weather by CustomWeather, © 2014

See weather overviewHow to use our weather pages